Time,TemperatureF,DewpointF,PressureIn,WindDirection,WindDirectionDegrees,WindSpeedMPH,WindSpeedGustMPH,Humidity,HourlyPrecipIn,Conditions,Clouds,dailyrainin,SoftwareType,DateUTC
2013-01-28 00:00:00,23.9,17.7,30.35,SSE,160,0.2,1.1,77,0.00,OVC,,0.00,WeatherDisplay:10.37,2013-01-28 05:00:00,
2013-01-28 00:03:00,23.9,17.7,30.35,SE,136,0.1,0.0,77,0.00,OVC,,0.00,WeatherDisplay:10.37,2013-01-28 05:03:00,
2013-01-28 00:08:00,23.9,17.7,30.34,ENE,77,0.7,1.1,77,0.00,OVC,,0.00,WeatherDisplay:10.37,2013-01-28 05:08:00,
2013-01-28 00:13:00,23.9,17.7,30.34,ENE,77,0.9,2.3,77,0.00,OVC,,0.00,WeatherDisplay:10.37,2013-01-28 05:13:00,
2013-01-28 00:18:00,23.9,17.7,30.34,ENE,75,0.0,1.1,77,0.00,OVC,,0.00,WeatherDisplay:10.37,2013-01-28 05:18:00,
2013-01-28 00:23:00,23.9,17.7,30.33,East,87,0.8,2.3,77,0.00,OVC,,0.00,WeatherDisplay:10.37,2013-01-28 05:23:00,
2013-01-28 00:28:00,23.9,17.7,30.33,SE,130,0.8,2.3,77,0.00,OVC,,0.00,WeatherDisplay:10.37,2013-01-28 05:28:00,
2013-01-28 00:33:00,23.9,17.7,30.33,ENE,68,0.1,1.1,77,0.00,OVC,,0.00,WeatherDisplay:10.37,2013-01-28 05:33:00,
2013-01-28 00:38:00,23.9,17.7,30.32,SE,136,0.5,1.0,77,0.00,OVC,,0.00,WeatherDisplay:10.37,2013-01-28 05:38:00,
2013-01-28 00:43:00,23.9,17.7,30.32,East,82,0.9,2.3,77,0.00,OVC,,0.00,WeatherDisplay:10.37,2013-01-28 05:43:00,
2013-01-28 00:48:00,23.9,17.7,30.32,ENE,73,0.6,2.3,77,0.00,OVC,,0.00,WeatherDisplay:10.37,2013-01-28 05:48:00,
2013-01-28 00:53:00,23.9,17.7,30.32,ENE,77,0.4,1.1,77,0.00,OVC,,0.00,WeatherDisplay:10.37,2013-01-28 05:53:00,
2013-01-28 00:59:00,24.0,17.8,30.31,ENE,77,0.0,1.1,77,0.00,OVC,,0.00,WeatherDisplay:10.37,2013-01-28 05:59:00,
2013-01-28 01:03:00,24.0,17.8,30.32,ESE,120,0.0,0.0,77,0.00,OVC,,0.00,WeatherDisplay:10.37,2013-01-28 06:03:00,
2013-01-28 01:09:00,24.0,17.8,30.31,ESE,120,0.0,0.0,77,0.00,OVC,,0.00,WeatherDisplay:10.37,2013-01-28 06:09:00,
2013-01-28 01:14:00,24.1,17.9,30.31,ESE,123,0.0,0.0,77,0.00,OVC,,0.00,WeatherDisplay:10.37,2013-01-28 06:14:00,
2013-01-28 01:19:00,24.2,18.3,30.31,ESE,122,0.0,0.0,78,0.00,OVC,,0.00,WeatherDisplay:10.37,2013-01-28 06:19:00,
2013-01-28 01:24:00,24.2,18.3,30.31,ESE,122,0.0,0.0,78,0.00,OVC,,0.00,WeatherDisplay:10.37,2013-01-28 06:24:00,
2013-01-28 01:29:00,24.2,18.3,30.31,East,92,0.0,0.0,78,0.00,OVC,,0.00,WeatherDisplay:10.37,2013-01-28 06:29:00,
2013-01-28 01:34:00,24.2,18.3,30.30,ESE,102,0.0,0.0,78,0.00,OVC,,0.00,WeatherDisplay:10.37,2013-01-28 06:34:00,
2013-01-28 01:39:00,24.3,18.4,30.30,East,94,0.0,0.0,78,0.00,OVC,,0.00,WeatherDisplay:10.37,2013-01-28 06:39:00,
2013-01-28 01:44:00,24.3,18.1,30.30,East,79,0.0,1.1,77,0.00,OVC,,0.00,WeatherDisplay:10.37,2013-01-28 06:44:00,
2013-01-28 01:49:00,24.3,18.4,30.30,East,79,0.0,0.0,78,0.00,OVC,,0.00,WeatherDisplay:10.37,2013-01-28 06:49:00,
2013-01-28 01:54:00,24.3,18.4,30.30,ESE,118,0.0,0.0,78,0.00,OVC,,0.00,WeatherDisplay:10.37,2013-01-28 06:54:00,
2013-01-28 01:59:00,24.4,18.5,30.29,East,79,0.2,1.1,78,0.00,OVC,,0.00,WeatherDisplay:10.37,2013-01-28 06:59:00,
2013-01-28 02:04:00,24.4,18.5,30.29,East,96,0.3,1.1,78,0.00,OVC,,0.00,WeatherDisplay:10.37,2013-01-28 07:04:00,
2013-01-28 02:09:00,24.4,18.5,30.29,SE,125,0.6,2.3,78,0.00,OVC,,0.00,WeatherDisplay:10.37,2013-01-28 07:09:00,
2013-01-28 02:14:00,24.4,18.5,30.29,SSE,148,0.3,1.1,78,0.00,OVC,,0.00,WeatherDisplay:10.37,2013-01-28 07:14:00,
2013-01-28 02:19:00,24.5,18.6,30.30,SE,138,0.0,0.0,78,0.00,OVC,,0.00,WeatherDisplay:10.37,2013-01-28 07:19:00,
2013-01-28 02:24:00,24.5,18.6,30.29,ESE,105,0.0,0.0,78,0.00,OVC,,0.00,WeatherDisplay:10.37,2013-01-28 07:24:00,
2013-01-28 02:29:00,24.6,18.7,30.29,SSE,158,0.1,1.1,78,0.00,OVC,,0.00,WeatherDisplay:10.37,2013-01-28 07:29:00,
2013-01-28 02:34:00,24.6,18.7,30.29,SSE,158,0.0,0.0,78,0.00,OVC,,0.00,WeatherDisplay:10.37,2013-01-28 07:34:00,
2013-01-28 02:39:00,24.7,18.8,30.29,SSE,158,0.1,1.0,78,0.00,OVC,,0.00,WeatherDisplay:10.37,2013-01-28 07:39:00,
2013-01-28 02:44:00,24.7,18.8,30.28,SSE,158,0.0,0.0,78,0.00,OVC,,0.00,WeatherDisplay:10.37,2013-01-28 07:44:00,
2013-01-28 02:49:00,24.7,18.8,30.28,SSE,158,0.0,0.0,78,0.00,OVC,,0.00,WeatherDisplay:10.37,2013-01-28 07:49:00,
2013-01-28 02:54:00,24.8,18.9,30.28,SSE,149,0.0,0.0,78,0.00,OVC,,0.00,WeatherDisplay:10.37,2013-01-28 07:54:00,
2013-01-28 02:59:00,24.8,18.9,30.28,East,94,0.0,1.1,78,0.00,OVC,,0.00,WeatherDisplay:10.37,2013-01-28 07:59:00,
2013-01-28 03:04:00,24.8,18.9,30.27,East,94,0.0,0.0,78,0.00,OVC,,0.00,WeatherDisplay:10.37,2013-01-28 08:04:00,
2013-01-28 03:09:00,24.8,19.2,30.27,East,98,0.0,0.0,79,0.00,OVC,,0.00,WeatherDisplay:10.37,2013-01-28 08:09:00,
2013-01-28 03:14:00,24.8,19.2,30.26,SE,137,0.0,0.0,79,0.00,OVC,,0.00,WeatherDisplay:10.37,2013-01-28 08:14:00,
2013-01-28 03:19:00,24.8,19.2,30.26,ESE,110,0.5,2.3,79,0.00,OVC,,0.00,WeatherDisplay:10.37,2013-01-28 08:19:00,
2013-01-28 03:24:00,24.9,19.3,30.25,ESE,109,0.0,0.0,79,0.00,OVC,,0.00,WeatherDisplay:10.37,2013-01-28 08:24:00,
2013-01-28 03:29:00,24.9,19.3,30.25,SSE,167,0.0,0.0,79,0.00,OVC,,0.00,WeatherDisplay:10.37,2013-01-28 08:29:00,
2013-01-28 03:34:00,24.9,19.3,30.26,SSE,165,0.2,1.1,79,0.00,OVC,,0.00,WeatherDisplay:10.37,2013-01-28 08:34:00,
2013-01-28 03:39:00,25.0,19.4,30.26,SSE,165,0.0,0.0,79,0.00,OVC,,0.00,WeatherDisplay:10.37,2013-01-28 08:39:00,
2013-01-28 03:44:00,25.1,19.5,30.26,SSE,165,0.0,0.0,79,0.00,OVC,,0.00,WeatherDisplay:10.37,2013-01-28 08:44:00,
2013-01-28 03:49:00,25.1,19.5,30.25,SSE,165,0.0,0.0,79,0.00,OVC,,0.00,WeatherDisplay:10.37,2013-01-28 08:49:00,
2013-01-28 03:54:00,25.2,19.9,30.25,SSE,165,0.0,0.0,80,0.00,OVC,,0.00,WeatherDisplay:10.37,2013-01-28 08:54:00,
2013-01-28 03:59:00,25.3,20.0,30.25,SSE,165,0.0,0.0,80,0.00,OVC,,0.00,WeatherDisplay:10.37,2013-01-28 08:59:00,
2013-01-28 04:05:00,25.4,20.1,30.25,SSE,165,0.0,0.0,80,0.00,-SN,,0.00,WeatherDisplay:10.37,2013-01-28 09:05:00,
2013-01-28 04:10:00,25.4,20.1,30.25,SE,142,0.0,0.0,80,0.00,-SN,,0.00,WeatherDisplay:10.37,2013-01-28 09:10:00,
2013-01-28 04:15:00,25.6,20.3,30.24,East,82,0.8,2.3,80,0.00,-SN,,0.00,WeatherDisplay:10.37,2013-01-28 09:15:00,
2013-01-28 04:20:00,25.7,20.4,30.24,East,83,0.0,0.0,80,0.00,-SN,,0.00,WeatherDisplay:10.37,2013-01-28 09:20:00,
2013-01-28 04:25:00,25.7,20.4,30.24,East,84,0.0,0.0,80,0.00,-SN,,0.00,WeatherDisplay:10.37,2013-01-28 09:25:00,
2013-01-28 04:30:00,25.7,20.4,30.24,East,84,0.0,0.0,80,0.00,-SN,,0.00,WeatherDisplay:10.37,2013-01-28 09:30:00,
2013-01-28 04:36:00,25.8,20.5,30.23,East,83,0.0,0.0,80,0.00,-SN,,0.00,WeatherDisplay:10.37,2013-01-28 09:36:00,
2013-01-28 04:41:00,25.9,20.6,30.22,East,83,0.0,0.0,80,0.00,-SN,,0.00,WeatherDisplay:10.37,2013-01-28 09:41:00,
2013-01-28 04:46:00,25.9,20.9,30.22,East,82,0.6,1.1,81,0.00,-SN,,0.00,WeatherDisplay:10.37,2013-01-28 09:46:00,
2013-01-28 04:51:00,26.0,21.3,30.22,East,95,1.5,2.3,82,0.00,-SN,,0.00,WeatherDisplay:10.37,2013-01-28 09:51:00,
2013-01-28 04:56:00,25.9,21.2,30.21,East,79,1.6,2.3,82,0.00,-SN,,0.00,WeatherDisplay:10.37,2013-01-28 09:56:00,
2013-01-28 05:01:00,25.9,21.4,30.20,ENE,77,1.0,2.3,83,0.00,-SN,,0.00,WeatherDisplay:10.37,2013-01-28 10:01:00,
2013-01-28 05:07:00,25.9,21.7,30.20,East,80,2.2,2.3,84,0.00,-SN,,0.00,WeatherDisplay:10.37,2013-01-28 10:07:00,
2013-01-28 05:12:00,25.9,22.0,30.19,East,79,2.0,2.3,85,0.00,-SN,,0.00,WeatherDisplay:10.37,2013-01-28 10:12:00,
2013-01-28 05:17:00,25.9,22.3,30.18,East,84,1.7,3.5,86,0.00,-SN,,0.00,WeatherDisplay:10.37,2013-01-28 10:17:00,
2013-01-28 05:22:00,25.8,22.5,30.18,East,79,1.9,3.5,87,0.00,-SN,,0.00,WeatherDisplay:10.37,2013-01-28 10:22:00,
2013-01-28 05:27:00,25.7,22.4,30.18,East,89,1.9,3.5,87,0.00,-SN,,0.00,WeatherDisplay:10.37,2013-01-28 10:27:00,
2013-01-28 05:32:00,25.8,22.7,30.18,SE,138,1.4,3.5,88,0.00,-SN,,0.00,WeatherDisplay:10.37,2013-01-28 10:32:00,
2013-01-28 05:37:00,25.8,22.7,30.18,East,89,1.3,2.3,88,0.00,-SN,,0.00,WeatherDisplay:10.37,2013-01-28 10:37:00,
2013-01-28 05:42:00,25.9,23.1,30.17,East,85,0.4,2.3,89,0.00,-SN,,0.00,WeatherDisplay:10.37,2013-01-28 10:42:00,
2013-01-28 05:47:00,25.9,23.1,30.17,East,91,2.6,3.5,89,0.00,-SN,,0.00,WeatherDisplay:10.37,2013-01-28 10:47:00,
2013-01-28 05:52:00,25.9,23.4,30.17,ENE,78,1.7,2.3,90,0.00,-SN,,0.00,WeatherDisplay:10.37,2013-01-28 10:52:00,
2013-01-28 05:57:00,25.9,23.4,30.16,East,82,1.4,3.5,90,0.00,-SN,,0.00,WeatherDisplay:10.37,2013-01-28 10:57:00,
2013-01-28 06:02:00,26.0,23.5,30.16,ENE,78,2.1,3.0,90,0.00,-SN,,0.00,WeatherDisplay:10.37,2013-01-28 11:02:00,
2013-01-28 06:07:00,26.0,23.7,30.15,ESE,105,4.1,4.1,91,0.00,-SN,,0.00,WeatherDisplay:10.37,2013-01-28 11:07:00,
2013-01-28 06:12:00,26.0,23.7,30.14,ESE,105,1.4,3.5,91,0.00,-SN,,0.00,WeatherDisplay:10.37,2013-01-28 11:12:00,
2013-01-28 06:17:00,26.1,23.8,30.14,ENE,78,1.6,3.5,91,0.00,-SN,,0.00,WeatherDisplay:10.37,2013-01-28 11:17:00,
2013-01-28 06:22:00,26.2,23.9,30.14,East,89,2.1,3.5,91,0.00,-SN,,0.00,WeatherDisplay:10.37,2013-01-28 11:22:00,
2013-01-28 06:27:00,26.3,24.3,30.14,East,86,1.1,3.5,92,0.00,-SN,,0.00,WeatherDisplay:10.37,2013-01-28 11:27:00,
2013-01-28 06:32:00,26.4,24.4,30.14,ENE,77,2.4,3.0,92,0.00,-SN,,0.00,WeatherDisplay:10.37,2013-01-28 11:32:00,
2013-01-28 06:37:00,26.5,24.5,30.13,East,81,2.0,3.5,92,0.00,-SN,,0.00,WeatherDisplay:10.37,2013-01-28 11:37:00,
2013-01-28 06:42:00,26.5,24.5,30.13,ENE,73,3.0,3.5,92,0.00,-SN,,0.00,WeatherDisplay:10.37,2013-01-28 11:42:00,
2013-01-28 06:47:00,26.6,24.6,30.12,ENE,78,2.7,3.5,92,0.00,OVC,,0.00,WeatherDisplay:10.37,2013-01-28 11:47:00,
2013-01-28 06:52:00,26.7,24.7,30.11,ENE,71,1.1,3.5,92,0.00,OVC,,0.00,WeatherDisplay:10.37,2013-01-28 11:52:00,
2013-01-28 06:57:00,26.8,25.0,30.10,East,90,4.0,5.0,93,0.00,OVC,,0.00,WeatherDisplay:10.37,2013-01-28 11:57:00,
2013-01-28 07:02:00,26.9,25.1,30.09,East,96,3.3,4.6,93,0.00,BKN,,0.00,WeatherDisplay:10.37,2013-01-28 12:02:00,
2013-01-28 07:07:00,27.3,25.5,30.08,SSE,150,2.0,3.5,93,0.00,BKN,,0.00,WeatherDisplay:10.37,2013-01-28 12:07:00,
2013-01-28 07:12:00,27.7,25.9,30.08,East,94,2.8,4.6,93,0.00,BKN,,0.00,WeatherDisplay:10.37,2013-01-28 12:12:00,
2013-01-28 07:17:00,28.1,26.6,30.07,ENE,59,3.9,5.0,94,0.00,OVC,,0.00,WeatherDisplay:10.37,2013-01-28 12:17:00,
2013-01-28 07:22:00,28.6,27.1,30.08,East,88,1.4,3.5,94,0.00,OVC,,0.00,WeatherDisplay:10.37,2013-01-28 12:22:00,
2013-01-28 07:27:00,28.9,27.4,30.09,East,82,0.0,1.1,94,0.00,OVC,,0.00,WeatherDisplay:10.37,2013-01-28 12:27:00,
2013-01-28 07:32:00,29.2,27.7,30.09,East,82,0.4,1.1,94,0.00,OVC,,0.00,WeatherDisplay:10.37,2013-01-28 12:32:00,
2013-01-28 07:37:00,29.5,28.0,30.09,ENE,78,0.1,1.1,94,0.00,OVC,,0.00,WeatherDisplay:10.37,2013-01-28 12:37:00,
2013-01-28 07:42:00,29.8,28.3,30.08,ENE,73,0.3,1.0,94,0.00,OVC,,0.00,WeatherDisplay:10.37,2013-01-28 12:42:00,
2013-01-28 07:47:00,30.2,28.7,30.08,SE,146,0.2,1.1,94,0.00,OVC,,0.00,WeatherDisplay:10.37,2013-01-28 12:47:00,
2013-01-28 07:52:00,30.4,28.9,30.08,East,98,0.0,1.0,94,0.00,OVC,,0.00,WeatherDisplay:10.37,2013-01-28 12:52:00,
2013-01-28 07:57:00,30.6,29.1,30.07,ENE,77,1.5,2.3,94,0.00,OVC,,0.00,WeatherDisplay:10.37,2013-01-28 12:57:00,
2013-01-28 08:02:00,30.8,29.3,30.08,East,80,1.2,3.5,94,0.00,OVC,,0.00,WeatherDisplay:10.37,2013-01-28 13:02:00,
2013-01-28 08:07:00,30.9,29.4,30.07,East,86,0.2,1.1,94,0.00,OVC,,0.00,WeatherDisplay:10.37,2013-01-28 13:07:00,
2013-01-28 08:13:00,31.1,29.6,30.07,East,94,1.8,3.5,94,0.00,OVC,,0.00,WeatherDisplay:10.37,2013-01-28 13:13:00,
2013-01-28 08:18:00,31.2,29.7,30.07,East,91,1.3,2.3,94,0.00,-RA,,0.00,WeatherDisplay:10.37,2013-01-28 13:18:00,
2013-01-28 08:23:00,31.3,29.8,30.06,East,80,1.8,3.5,94,0.00,-RA,,0.00,WeatherDisplay:10.37,2013-01-28 13:23:00,
2013-01-28 08:28:00,31.5,30.0,30.06,East,86,1.7,3.0,94,0.00,-RA,,0.00,WeatherDisplay:10.37,2013-01-28 13:28:00,
2013-01-28 08:33:00,31.6,30.1,30.06,East,81,1.2,2.3,94,0.00,-RA,,0.00,WeatherDisplay:10.37,2013-01-28 13:33:00,
2013-01-28 08:38:00,31.7,30.2,30.05,ENE,68,2.2,3.5,94,0.01,-RA,,0.01,WeatherDisplay:10.37,2013-01-28 13:38:00,
2013-01-28 08:43:00,31.8,30.3,30.05,East,83,2.0,2.3,94,0.01,-RA,,0.01,WeatherDisplay:10.37,2013-01-28 13:43:00,
2013-01-28 08:48:00,31.9,30.4,30.05,ENE,78,1.0,2.3,94,0.01,-RA,,0.01,WeatherDisplay:10.37,2013-01-28 13:48:00,
2013-01-28 08:53:00,32.0,30.5,30.05,East,94,0.0,1.1,94,0.01,-RA,,0.01,WeatherDisplay:10.37,2013-01-28 13:53:00,
2013-01-28 08:58:00,32.0,30.5,30.04,East,85,0.7,2.3,94,0.01,-RA,,0.01,WeatherDisplay:10.37,2013-01-28 13:58:00,
2013-01-28 09:03:00,32.1,30.6,30.03,East,96,1.4,2.3,94,0.01,-DZ,,0.01,WeatherDisplay:10.37,2013-01-28 14:03:00,
2013-01-28 09:08:00,32.2,30.7,30.02,East,79,0.0,1.1,94,0.02,-DZ,,0.02,WeatherDisplay:10.37,2013-01-28 14:08:00,
2013-01-28 09:13:00,32.3,30.8,30.02,East,87,0.4,2.3,94,0.02,-DZ,,0.02,WeatherDisplay:10.37,2013-01-28 14:13:00,
2013-01-28 09:18:00,32.3,30.8,30.01,East,89,1.0,2.3,94,0.02,-RA,,0.02,WeatherDisplay:10.37,2013-01-28 14:18:00,
2013-01-28 09:23:00,32.4,30.9,30.01,East,81,0.6,2.3,94,0.02,-RA,,0.02,WeatherDisplay:10.37,2013-01-28 14:23:00,
2013-01-28 09:28:00,32.4,30.9,30.00,ENE,66,0.5,1.1,94,0.02,-RA,,0.02,WeatherDisplay:10.37,2013-01-28 14:28:00,
2013-01-28 09:33:00,32.5,31.2,30.00,ESE,115,0.2,1.1,95,0.02,-DZ,,0.02,WeatherDisplay:10.37,2013-01-28 14:33:00,
2013-01-28 09:38:00,32.5,31.2,30.00,ENE,64,0.0,1.1,95,0.01,-DZ,,0.02,WeatherDisplay:10.37,2013-01-28 14:38:00,
2013-01-28 09:43:00,32.6,31.3,30.00,East,101,2.1,3.5,95,0.01,-DZ,,0.02,WeatherDisplay:10.37,2013-01-28 14:43:00,
2013-01-28 09:48:00,32.7,31.4,30.00,ENE,75,0.0,1.1,95,0.01,OVC,,0.02,WeatherDisplay:10.37,2013-01-28 14:48:00,
2013-01-28 09:53:00,32.8,31.5,30.00,East,86,0.4,2.0,95,0.01,OVC,,0.02,WeatherDisplay:10.37,2013-01-28 14:53:00,
2013-01-28 09:58:00,32.9,31.6,29.99,East,79,0.5,1.1,95,0.01,OVC,,0.02,WeatherDisplay:10.37,2013-01-28 14:58:00,
2013-01-28 10:03:00,32.9,31.6,29.99,East,86,1.0,3.5,95,0.01,OVC,,0.02,WeatherDisplay:10.37,2013-01-28 15:03:00,
2013-01-28 10:08:00,32.9,31.6,29.98,East,86,0.3,1.1,95,0.00,OVC,,0.02,WeatherDisplay:10.37,2013-01-28 15:08:00,
2013-01-28 10:13:00,33.0,31.7,29.98,East,84,0.8,1.1,95,0.00,OVC,,0.02,WeatherDisplay:10.37,2013-01-28 15:13:00,
2013-01-28 10:18:00,33.1,31.8,29.98,East,81,0.4,2.3,95,0.00,-RA,,0.02,WeatherDisplay:10.37,2013-01-28 15:18:00,
2013-01-28 10:23:00,33.2,31.9,29.98,East,82,0.0,0.0,95,0.00,-RA,,0.02,WeatherDisplay:10.37,2013-01-28 15:23:00,
2013-01-28 10:28:00,33.3,32.0,29.98,East,82,0.0,0.0,95,0.00,-RA,,0.02,WeatherDisplay:10.37,2013-01-28 15:28:00,
2013-01-28 10:33:00,33.4,32.1,29.98,East,82,0.0,0.0,95,0.00,-RA,,0.02,WeatherDisplay:10.37,2013-01-28 15:33:00,
2013-01-28 10:38:00,33.5,32.2,29.98,East,82,0.0,0.0,95,0.00,-RA,,0.02,WeatherDisplay:10.37,2013-01-28 15:38:00,
2013-01-28 10:43:00,33.5,32.2,29.98,East,82,0.0,0.0,95,0.00,-RA,,0.02,WeatherDisplay:10.37,2013-01-28 15:43:00,
2013-01-28 10:48:00,33.5,32.2,29.98,East,82,0.0,0.0,95,0.00,-DZ,,0.02,WeatherDisplay:10.37,2013-01-28 15:48:00,
2013-01-28 10:53:00,33.7,32.4,29.97,East,82,0.0,0.0,95,0.00,-DZ,,0.02,WeatherDisplay:10.37,2013-01-28 15:53:00,
2013-01-28 10:58:00,33.8,32.5,29.97,East,82,0.0,0.0,95,0.01,-DZ,,0.03,WeatherDisplay:10.37,2013-01-28 15:58:00,
2013-01-28 11:03:00,33.8,32.5,29.97,East,82,0.0,0.0,95,0.01,-RA,,0.03,WeatherDisplay:10.37,2013-01-28 16:03:00,
2013-01-28 11:08:00,33.7,32.4,29.97,East,82,0.1,1.1,95,0.01,-RA,,0.03,WeatherDisplay:10.37,2013-01-28 16:08:00,
2013-01-28 11:13:00,33.8,32.5,29.97,East,82,0.0,0.0,95,0.01,-RA,,0.03,WeatherDisplay:10.37,2013-01-28 16:13:00,
2013-01-28 11:19:00,33.9,32.6,29.97,East,82,0.0,0.0,95,0.01,-RA,,0.03,WeatherDisplay:10.37,2013-01-28 16:19:00,
2013-01-28 11:24:00,34.0,32.7,29.97,East,82,0.0,0.0,95,0.01,-RA,,0.03,WeatherDisplay:10.37,2013-01-28 16:24:00,
2013-01-28 11:29:00,34.1,32.8,29.97,East,82,0.0,0.0,95,0.01,-RA,,0.03,WeatherDisplay:10.37,2013-01-28 16:29:00,
2013-01-28 11:34:00,34.1,32.8,29.96,East,82,0.0,0.0,95,0.01,-RA,,0.03,WeatherDisplay:10.37,2013-01-28 16:34:00,
2013-01-28 11:39:00,34.2,32.9,29.96,East,82,0.0,0.0,95,0.02,-RA,,0.04,WeatherDisplay:10.37,2013-01-28 16:39:00,
2013-01-28 11:44:00,34.2,32.9,29.95,East,82,0.0,0.0,95,0.02,-RA,,0.04,WeatherDisplay:10.37,2013-01-28 16:44:00,
2013-01-28 11:50:00,34.3,33.0,29.95,East,82,0.0,0.0,95,0.02,-RA,,0.04,WeatherDisplay:10.37,2013-01-28 16:50:00,
2013-01-28 11:55:00,34.7,33.4,29.94,East,82,0.0,0.0,95,0.01,-RA,,0.04,WeatherDisplay:10.37,2013-01-28 16:55:00,
2013-01-28 12:00:00,34.9,33.6,29.94,East,82,0.0,0.0,95,0.02,-RA,,0.05,WeatherDisplay:10.37,2013-01-28 17:00:00,
2013-01-28 12:05:00,34.9,33.6,29.93,East,82,0.0,0.0,95,0.02,-RA,,0.05,WeatherDisplay:10.37,2013-01-28 17:05:00,
2013-01-28 12:10:00,35.3,34.0,29.93,East,82,0.0,0.0,95,0.02,-RA,,0.05,WeatherDisplay:10.37,2013-01-28 17:10:00,
2013-01-28 12:16:00,35.2,33.9,29.93,NNW,346,0.0,0.0,95,0.02,-RA,,0.06,WeatherDisplay:10.37,2013-01-28 17:16:00,
2013-01-28 12:21:00,35.0,33.7,29.93,NNW,346,0.0,0.0,95,0.03,-RA,,0.06,WeatherDisplay:10.37,2013-01-28 17:21:00,
2013-01-28 12:26:00,35.1,33.8,29.93,WNW,283,0.5,2.3,95,0.03,-RA,,0.06,WeatherDisplay:10.37,2013-01-28 17:26:00,
2013-01-28 12:31:00,35.4,34.1,29.92,WNW,284,0.0,0.0,95,0.03,-RA,,0.06,WeatherDisplay:10.37,2013-01-28 17:31:00,
2013-01-28 12:36:00,35.7,34.4,29.92,WNW,284,0.0,0.0,95,0.03,-RA,,0.07,WeatherDisplay:10.37,2013-01-28 17:36:00,
2013-01-28 12:41:00,36.0,34.7,29.92,WNW,283,0.0,0.0,95,0.03,-RA,,0.07,WeatherDisplay:10.37,2013-01-28 17:41:00,
2013-01-28 12:46:00,36.2,34.9,29.91,WSW,253,0.0,0.0,95,0.03,-DZ,,0.07,WeatherDisplay:10.37,2013-01-28 17:46:00,
2013-01-28 12:51:00,36.5,35.2,29.91,SSE,159,0.5,1.1,95,0.03,-DZ,,0.07,WeatherDisplay:10.37,2013-01-28 17:51:00,
2013-01-28 12:56:00,36.7,35.4,29.90,SSE,162,1.8,3.5,95,0.03,-DZ,,0.08,WeatherDisplay:10.37,2013-01-28 17:56:00,
2013-01-28 13:01:00,36.9,35.6,29.90,SSE,162,1.4,2.3,95,0.03,-RA,,0.08,WeatherDisplay:10.37,2013-01-28 18:01:00,
2013-01-28 13:06:00,37.1,35.8,29.90,SSW,197,1.2,2.3,95,0.03,-RA,,0.09,WeatherDisplay:10.37,2013-01-28 18:06:00,
2013-01-28 13:11:00,37.5,36.2,29.89,South,183,1.7,3.5,95,0.04,-RA,,0.09,WeatherDisplay:10.37,2013-01-28 18:11:00,
2013-01-28 13:16:00,38.0,37.0,29.88,SW,222,3.7,4.6,96,0.05,-RA,,0.10,WeatherDisplay:10.37,2013-01-28 18:16:00,
2013-01-28 13:21:00,38.4,37.4,29.88,SW,228,4.9,4.9,96,0.04,-RA,,0.11,WeatherDisplay:10.37,2013-01-28 18:21:00,
2013-01-28 13:26:00,38.7,37.7,29.88,SSW,200,4.9,6.9,96,0.05,-RA,,0.11,WeatherDisplay:10.37,2013-01-28 18:26:00,
2013-01-28 13:31:00,38.9,37.9,29.88,SSW,201,6.2,10.4,96,0.06,-RA,,0.12,WeatherDisplay:10.37,2013-01-28 18:31:00,
2013-01-28 13:36:00,39.1,38.1,29.88,SW,214,7.0,10.0,96,0.06,-RA,,0.14,WeatherDisplay:10.37,2013-01-28 18:36:00,
2013-01-28 13:41:00,39.2,38.2,29.87,SSW,208,5.1,8.1,96,0.08,-RA,,0.15,WeatherDisplay:10.37,2013-01-28 18:41:00,
2013-01-28 13:46:00,39.2,37.9,29.86,SW,226,5.3,8.1,95,0.09,-DZ,,0.16,WeatherDisplay:10.37,2013-01-28 18:46:00,
2013-01-28 13:51:00,39.3,38.3,29.86,South,169,4.2,5.8,96,0.10,-DZ,,0.17,WeatherDisplay:10.37,2013-01-28 18:51:00,
2013-01-28 13:56:00,39.4,38.4,29.86,SSW,195,4.6,6.9,96,0.10,-DZ,,0.18,WeatherDisplay:10.37,2013-01-28 18:56:00,
2013-01-28 14:01:00,39.5,38.5,29.86,SSW,204,6.1,8.1,96,0.11,-RA,,0.19,WeatherDisplay:10.37,2013-01-28 19:01:00,
2013-01-28 14:06:00,39.6,38.6,29.86,SSW,197,5.0,8.1,96,0.12,-RA,,0.20,WeatherDisplay:10.37,2013-01-28 19:06:00,
2013-01-28 14:11:00,39.6,38.6,29.86,SSW,204,5.6,9.2,96,0.12,-RA,,0.21,WeatherDisplay:10.37,2013-01-28 19:11:00,
2013-01-28 14:16:00,39.7,38.7,29.85,SW,231,5.4,8.1,96,0.13,-RA,,0.23,WeatherDisplay:10.37,2013-01-28 19:16:00,
2013-01-28 14:21:00,39.7,38.7,29.85,South,170,4.7,8.1,96,0.14,-RA,,0.24,WeatherDisplay:10.37,2013-01-28 19:21:00,
2013-01-28 14:26:00,39.7,38.7,29.84,SSW,207,4.1,11.5,96,0.13,-RA,,0.24,WeatherDisplay:10.37,2013-01-28 19:26:00,
2013-01-28 14:31:00,39.8,38.8,29.84,SSW,207,7.0,10.4,96,0.13,-RA,,0.25,WeatherDisplay:10.37,2013-01-28 19:31:00,
2013-01-28 14:36:00,39.9,38.9,29.84,SSW,210,6.4,11.0,96,0.13,-RA,,0.26,WeatherDisplay:10.37,2013-01-28 19:36:00,
2013-01-28 14:41:00,39.9,38.9,29.84,SSW,207,7.2,10.4,96,0.11,-RA,,0.26,WeatherDisplay:10.37,2013-01-28 19:41:00,
2013-01-28 14:46:00,39.9,38.9,29.84,SSW,203,4.3,6.9,96,0.10,-RA,,0.26,WeatherDisplay:10.37,2013-01-28 19:46:00,
2013-01-28 14:52:00,40.0,39.0,29.84,SSW,200,4.6,8.0,96,0.10,-RA,,0.27,WeatherDisplay:10.37,2013-01-28 19:52:00,
2013-01-28 14:57:00,40.0,39.0,29.84,SSW,208,4.6,6.0,96,0.09,-RA,,0.27,WeatherDisplay:10.37,2013-01-28 19:57:00,
2013-01-28 15:02:00,40.1,39.1,29.84,South,187,6.7,10.4,96,0.08,-RA,,0.27,WeatherDisplay:10.37,2013-01-28 20:02:00,
2013-01-28 15:07:00,40.2,39.2,29.84,SSW,212,4.9,7.0,96,0.08,-RA,,0.28,WeatherDisplay:10.37,2013-01-28 20:07:00,
2013-01-28 15:12:00,40.3,39.3,29.84,South,190,6.3,8.1,96,0.07,-RA,,0.28,WeatherDisplay:10.37,2013-01-28 20:12:00,
2013-01-28 15:17:00,40.3,39.3,29.84,WSW,243,7.3,11.5,96,0.05,-RA,,0.28,WeatherDisplay:10.37,2013-01-28 20:17:00,
2013-01-28 15:22:00,40.2,39.2,29.85,SW,219,6.4,10.4,96,0.04,-RA,,0.28,WeatherDisplay:10.37,2013-01-28 20:22:00,
2013-01-28 15:27:00,40.4,39.4,29.85,SW,229,7.8,16.1,96,0.03,-RA,,0.28,WeatherDisplay:10.37,2013-01-28 20:27:00,
2013-01-28 15:32:00,40.2,39.2,29.84,WSW,238,7.0,10.4,96,0.03,-RA,,0.28,WeatherDisplay:10.37,2013-01-28 20:32:00,
2013-01-28 15:37:00,40.1,39.1,29.85,SW,229,8.7,11.5,96,0.02,-RA,,0.28,WeatherDisplay:10.37,2013-01-28 20:37:00,
2013-01-28 15:42:00,40.4,39.4,29.85,SSW,203,7.7,11.5,96,0.02,-RA,,0.28,WeatherDisplay:10.37,2013-01-28 20:42:00,
2013-01-28 15:47:00,40.5,39.4,29.84,SW,233,11.0,15.0,96,0.01,-RA,,0.28,WeatherDisplay:10.37,2013-01-28 20:47:00,
2013-01-28 15:52:00,40.6,39.5,29.84,SW,224,10.7,13.8,96,0.01,-RA,,0.28,WeatherDisplay:10.37,2013-01-28 20:52:00,
2013-01-28 15:57:00,40.5,39.4,29.85,West,271,7.8,12.7,96,0.01,-RA,,0.28,WeatherDisplay:10.37,2013-01-28 20:57:00,
2013-01-28 16:02:00,40.6,39.5,29.85,WSW,239,11.7,12.7,96,0.02,-RA,,0.29,WeatherDisplay:10.37,2013-01-28 21:02:00,
2013-01-28 16:07:00,40.6,39.5,29.85,SW,224,8.9,13.8,96,0.01,-RA,,0.29,WeatherDisplay:10.37,2013-01-28 21:07:00,
2013-01-28 16:12:00,40.7,39.6,29.85,SW,218,7.6,10.4,96,0.01,-RA,,0.29,WeatherDisplay:10.37,2013-01-28 21:12:00,
2013-01-28 16:17:00,40.5,39.4,29.85,SW,231,8.6,15.0,96,0.01,-RA,,0.29,WeatherDisplay:10.37,2013-01-28 21:17:00,
2013-01-28 16:22:00,40.4,39.4,29.85,SW,224,9.0,13.8,96,0.01,-RA,,0.29,WeatherDisplay:10.37,2013-01-28 21:22:00,
2013-01-28 16:27:00,40.6,39.5,29.85,WSW,238,13.1,18.4,96,0.01,-RA,,0.29,WeatherDisplay:10.37,2013-01-28 21:27:00,
2013-01-28 16:32:00,40.5,39.4,29.85,WSW,245,10.0,15.0,96,0.01,-RA,,0.29,WeatherDisplay:10.37,2013-01-28 21:32:00,
2013-01-28 16:37:00,40.7,39.6,29.85,SSW,212,8.6,12.7,96,0.01,-RA,,0.29,WeatherDisplay:10.37,2013-01-28 21:37:00,
2013-01-28 16:42:00,40.9,39.8,29.85,SW,222,13.5,18.4,96,0.01,-RA,,0.29,WeatherDisplay:10.37,2013-01-28 21:42:00,
2013-01-28 16:47:00,41.1,40.3,29.85,WSW,244,13.4,17.3,97,0.01,-RA,,0.29,WeatherDisplay:10.37,2013-01-28 21:47:00,
2013-01-28 16:52:00,41.2,40.4,29.85,WSW,256,11.3,20.7,97,0.01,-RA,,0.29,WeatherDisplay:10.37,2013-01-28 21:52:00,
2013-01-28 16:57:00,41.1,40.0,29.85,WSW,239,12.3,16.1,96,0.01,-RA,,0.29,WeatherDisplay:10.37,2013-01-28 21:57:00,
2013-01-28 17:02:00,41.0,39.9,29.85,SW,233,11.1,12.0,96,0.00,-RA,,0.29,WeatherDisplay:10.37,2013-01-28 22:02:00,
2013-01-28 17:07:00,41.1,40.0,29.85,WSW,245,10.1,16.0,96,0.00,-RA,,0.29,WeatherDisplay:10.37,2013-01-28 22:07:00,
2013-01-28 17:12:00,41.0,39.9,29.85,SW,222,12.2,17.3,96,0.00,-RA,,0.29,WeatherDisplay:10.37,2013-01-28 22:12:00,
2013-01-28 17:17:00,41.1,40.0,29.85,SW,224,9.8,15.0,96,0.00,-RA,,0.29,WeatherDisplay:10.37,2013-01-28 22:17:00,
2013-01-28 17:22:00,41.1,40.0,29.85,SW,215,14.8,19.6,96,0.00,-RA,,0.29,WeatherDisplay:10.37,2013-01-28 22:22:00,
2013-01-28 17:28:00,41.1,40.0,29.86,SW,226,11.6,18.0,96,0.00,-RA,,0.29,WeatherDisplay:10.37,2013-01-28 22:28:00,
2013-01-28 17:33:00,41.0,39.9,29.86,SSW,193,11.9,17.3,96,0.00,-RA,,0.29,WeatherDisplay:10.37,2013-01-28 22:33:00,
2013-01-28 17:38:00,40.9,39.8,29.86,SW,235,11.6,13.8,96,0.00,-RA,,0.29,WeatherDisplay:10.37,2013-01-28 22:38:00,
2013-01-28 17:43:00,40.8,39.7,29.86,SW,232,10.7,15.0,96,0.00,-RA,,0.29,WeatherDisplay:10.37,2013-01-28 22:43:00,
2013-01-28 17:48:00,40.8,39.7,29.86,West,270,13.9,18.0,96,0.00,-RA,,0.29,WeatherDisplay:10.37,2013-01-28 22:48:00,
2013-01-28 17:53:00,40.9,40.1,29.87,WSW,243,11.3,16.1,97,0.00,-RA,,0.29,WeatherDisplay:10.37,2013-01-28 22:53:00,
2013-01-28 17:58:00,40.7,39.6,29.87,West,262,11.8,16.1,96,0.00,-RA,,0.29,WeatherDisplay:10.37,2013-01-28 22:58:00,
2013-01-28 18:03:00,41.0,40.2,29.87,SW,217,13.4,18.4,97,0.00,-RA,,0.29,WeatherDisplay:10.37,2013-01-28 23:03:00,
2013-01-28 18:08:00,40.8,40.0,29.87,WSW,243,11.7,15.0,97,0.00,-RA,,0.29,WeatherDisplay:10.37,2013-01-28 23:08:00,
2013-01-28 18:13:00,40.8,40.0,29.87,SW,231,13.9,19.6,97,0.00,-RA,,0.29,WeatherDisplay:10.37,2013-01-28 23:13:00,
2013-01-28 18:18:00,40.8,40.0,29.87,SW,226,12.1,18.4,97,0.00,-RA,,0.29,WeatherDisplay:10.37,2013-01-28 23:18:00,
2013-01-28 18:23:00,40.7,39.9,29.87,SW,233,12.6,16.1,97,0.00,-RA,,0.29,WeatherDisplay:10.37,2013-01-28 23:23:00,
2013-01-28 18:28:00,40.6,39.8,29.87,WSW,245,11.4,12.7,97,0.00,-RA,,0.29,WeatherDisplay:10.37,2013-01-28 23:28:00,
2013-01-28 18:33:00,40.7,39.9,29.87,SW,226,10.0,12.0,97,0.00,-RA,,0.29,WeatherDisplay:10.37,2013-01-28 23:33:00,
2013-01-28 18:38:00,40.9,40.1,29.87,SW,229,11.8,19.6,97,0.00,-RA,,0.29,WeatherDisplay:10.37,2013-01-28 23:38:00,
2013-01-28 18:43:00,40.9,40.1,29.88,WSW,240,9.3,12.7,97,0.00,-RA,,0.29,WeatherDisplay:10.37,2013-01-28 23:43:00,
2013-01-28 18:48:00,40.8,40.0,29.88,WSW,256,10.2,11.5,97,0.00,-RA,,0.29,WeatherDisplay:10.37,2013-01-28 23:48:00,
2013-01-28 18:53:00,40.8,40.0,29.88,WSW,245,9.4,16.1,97,0.00,-RA,,0.29,WeatherDisplay:10.37,2013-01-28 23:53:00,
2013-01-28 18:58:00,40.6,39.8,29.88,WSW,253,9.9,12.7,97,0.00,-RA,,0.29,WeatherDisplay:10.37,2013-01-28 23:58:00,
2013-01-28 19:03:00,40.8,40.0,29.88,SW,217,11.7,16.1,97,0.00,-DZ,,0.29,WeatherDisplay:10.37,2013-01-29 00:03:00,
2013-01-28 19:08:00,40.8,40.0,29.89,WSW,243,9.7,12.7,97,0.00,-DZ,,0.29,WeatherDisplay:10.37,2013-01-29 00:08:00,
2013-01-28 19:13:00,40.7,39.9,29.89,West,260,8.6,12.7,97,0.00,-DZ,,0.29,WeatherDisplay:10.37,2013-01-29 00:13:00,
2013-01-28 19:18:00,40.9,40.1,29.89,WSW,252,10.2,13.8,97,0.00,-DZ,,0.29,WeatherDisplay:10.37,2013-01-29 00:18:00,
2013-01-28 19:23:00,41.0,40.2,29.89,SW,232,8.6,12.7,97,0.00,-DZ,,0.29,WeatherDisplay:10.37,2013-01-29 00:23:00,
2013-01-28 19:28:00,41.0,40.2,29.89,SW,235,7.8,11.5,97,0.00,-DZ,,0.29,WeatherDisplay:10.37,2013-01-29 00:28:00,
2013-01-28 19:33:00,41.0,40.2,29.89,WSW,254,11.3,15.0,97,0.00,OVC,,0.29,WeatherDisplay:10.37,2013-01-29 00:33:00,
2013-01-28 19:38:00,41.3,40.5,29.89,WSW,249,9.4,13.8,97,0.00,OVC,,0.29,WeatherDisplay:10.37,2013-01-29 00:38:00,
2013-01-28 19:43:00,41.4,40.6,29.90,WSW,252,10.5,11.5,97,0.00,OVC,,0.29,WeatherDisplay:10.37,2013-01-29 00:43:00,
2013-01-28 19:48:00,41.3,40.5,29.90,WSW,247,5.5,15.0,97,0.00,OVC,,0.29,WeatherDisplay:10.37,2013-01-29 00:48:00,
2013-01-28 19:53:00,41.3,40.5,29.90,WSW,246,10.0,13.8,97,0.00,OVC,,0.29,WeatherDisplay:10.37,2013-01-29 00:53:00,
2013-01-28 19:58:00,41.3,40.5,29.90,WSW,248,7.7,13.8,97,0.00,OVC,,0.29,WeatherDisplay:10.37,2013-01-29 00:58:00,
2013-01-28 20:03:00,41.2,40.4,29.90,WSW,257,8.8,15.0,97,0.00,OVC,,0.29,WeatherDisplay:10.37,2013-01-29 01:03:00,
2013-01-28 20:08:00,41.1,40.3,29.90,West,259,7.9,13.8,97,0.00,OVC,,0.29,WeatherDisplay:10.37,2013-01-29 01:08:00,
2013-01-28 20:13:00,41.1,40.3,29.90,West,274,9.3,11.5,97,0.00,OVC,,0.29,WeatherDisplay:10.37,2013-01-29 01:13:00,
2013-01-28 20:18:00,41.1,40.3,29.91,NW,304,10.4,12.7,97,0.00,OVC,,0.29,WeatherDisplay:10.37,2013-01-29 01:18:00,
2013-01-28 20:23:00,40.9,40.1,29.91,WSW,256,7.4,11.5,97,0.00,OVC,,0.29,WeatherDisplay:10.37,2013-01-29 01:23:00,
2013-01-28 20:28:00,40.9,40.1,29.91,WSW,246,8.7,10.4,97,0.00,OVC,,0.29,WeatherDisplay:10.37,2013-01-29 01:28:00,
2013-01-28 20:33:00,40.9,40.1,29.91,WSW,237,7.8,10.4,97,0.00,OVC,,0.29,WeatherDisplay:10.37,2013-01-29 01:33:00,
2013-01-28 20:38:00,40.9,40.1,29.91,WNW,285,9.3,12.7,97,0.00,OVC,,0.29,WeatherDisplay:10.37,2013-01-29 01:38:00,
2013-01-28 20:43:00,41.0,40.2,29.91,WSW,246,9.3,11.5,97,0.00,OVC,,0.29,WeatherDisplay:10.37,2013-01-29 01:43:00,
2013-01-28 20:48:00,41.0,40.2,29.92,WSW,249,7.6,10.4,97,0.00,-DZ,,0.29,WeatherDisplay:10.37,2013-01-29 01:48:00,
2013-01-28 20:53:00,41.0,40.2,29.92,SW,236,5.5,8.1,97,0.00,-DZ,,0.29,WeatherDisplay:10.37,2013-01-29 01:53:00,
2013-01-28 20:58:00,41.0,40.2,29.92,WSW,256,7.3,11.5,97,0.00,-DZ,,0.29,WeatherDisplay:10.37,2013-01-29 01:58:00,
2013-01-28 21:03:00,41.0,40.2,29.92,WSW,249,5.8,10.4,97,0.00,-DZ,,0.29,WeatherDisplay:10.37,2013-01-29 02:03:00,
2013-01-28 21:08:00,41.0,40.2,29.92,SW,235,6.6,8.1,97,0.00,-DZ,,0.29,WeatherDisplay:10.37,2013-01-29 02:08:00,
2013-01-28 21:13:00,41.0,40.2,29.92,WSW,250,5.5,9.2,97,0.00,-DZ,,0.29,WeatherDisplay:10.37,2013-01-29 02:13:00,
2013-01-28 21:18:00,41.0,40.2,29.93,WNW,293,7.6,11.5,97,0.00,-DZ,,0.29,WeatherDisplay:10.37,2013-01-29 02:18:00,
2013-01-28 21:23:00,41.1,40.3,29.92,West,280,6.8,9.2,97,0.00,-DZ,,0.29,WeatherDisplay:10.37,2013-01-29 02:23:00,
2013-01-28 21:28:00,41.1,40.3,29.92,West,259,7.7,11.5,97,0.00,-DZ,,0.29,WeatherDisplay:10.37,2013-01-29 02:28:00,
2013-01-28 21:33:00,41.3,40.5,29.93,WSW,257,7.0,16.1,97,0.00,-DZ,,0.29,WeatherDisplay:10.37,2013-01-29 02:33:00,
2013-01-28 21:38:00,41.6,40.8,29.93,West,260,6.7,11.5,97,0.00,-DZ,,0.29,WeatherDisplay:10.37,2013-01-29 02:38:00,
2013-01-28 21:43:00,41.6,40.8,29.93,West,276,7.6,13.8,97,0.00,-DZ,,0.29,WeatherDisplay:10.37,2013-01-29 02:43:00,
2013-01-28 21:48:00,41.6,40.8,29.93,West,277,7.8,10.4,97,0.00,-DZ,,0.29,WeatherDisplay:10.37,2013-01-29 02:48:00,
2013-01-28 21:53:00,41.6,40.8,29.94,North,357,5.0,9.0,97,0.00,-DZ,,0.29,WeatherDisplay:10.37,2013-01-29 02:53:00,
2013-01-28 21:58:00,41.6,40.8,29.93,WNW,294,9.0,11.5,97,0.00,-DZ,,0.29,WeatherDisplay:10.37,2013-01-29 02:58:00,
2013-01-28 22:04:00,41.5,40.4,29.93,West,276,9.0,15.0,96,0.00,OVC,,0.29,WeatherDisplay:10.37,2013-01-29 03:04:00,
2013-01-28 22:09:00,41.4,40.3,29.94,WNW,291,7.1,11.5,96,0.00,OVC,,0.29,WeatherDisplay:10.37,2013-01-29 03:09:00,
2013-01-28 22:14:00,41.4,40.3,29.94,West,270,5.3,11.5,96,0.00,OVC,,0.29,WeatherDisplay:10.37,2013-01-29 03:14:00,
2013-01-28 22:19:00,41.4,40.3,29.94,West,267,6.0,10.4,96,0.00,OVC,,0.29,WeatherDisplay:10.37,2013-01-29 03:19:00,
2013-01-28 22:24:00,41.3,40.2,29.94,West,260,8.1,11.5,96,0.00,OVC,,0.29,WeatherDisplay:10.37,2013-01-29 03:24:00,
2013-01-28 22:29:00,41.3,40.2,29.95,West,275,6.0,13.0,96,0.00,OVC,,0.29,WeatherDisplay:10.37,2013-01-29 03:29:00,
2013-01-28 22:35:00,41.2,40.1,29.95,West,259,4.9,9.2,96,0.00,OVC,,0.29,WeatherDisplay:10.37,2013-01-29 03:35:00,
2013-01-28 22:40:00,41.1,39.8,29.95,West,273,5.7,9.2,95,0.00,OVC,,0.29,WeatherDisplay:10.37,2013-01-29 03:40:00,
2013-01-28 22:45:00,41.0,39.7,29.96,WNW,295,7.5,11.5,95,0.00,OVC,,0.29,WeatherDisplay:10.37,2013-01-29 03:45:00,
2013-01-28 22:50:00,40.9,39.6,29.96,WNW,290,5.1,9.2,95,0.00,OVC,,0.29,WeatherDisplay:10.37,2013-01-29 03:50:00,
2013-01-28 22:55:00,40.9,39.6,29.96,West,269,8.3,11.5,95,0.00,OVC,,0.29,WeatherDisplay:10.37,2013-01-29 03:55:00,
2013-01-28 23:00:00,40.9,39.8,29.96,West,274,8.3,15.0,96,0.00,OVC,,0.29,WeatherDisplay:10.37,2013-01-29 04:00:00,
2013-01-28 23:05:00,40.8,39.5,29.96,West,281,6.1,9.2,95,0.00,OVC,,0.29,WeatherDisplay:10.37,2013-01-29 04:05:00,
2013-01-28 23:10:00,40.8,39.5,29.96,WNW,291,5.7,9.2,95,0.00,OVC,,0.29,WeatherDisplay:10.37,2013-01-29 04:10:00,
2013-01-28 23:15:00,40.6,39.3,29.97,West,277,5.5,9.2,95,0.00,OVC,,0.29,WeatherDisplay:10.37,2013-01-29 04:15:00,
2013-01-28 23:20:00,40.5,39.2,29.97,WNW,285,6.0,9.2,95,0.00,OVC,,0.29,WeatherDisplay:10.37,2013-01-29 04:20:00,
2013-01-28 23:25:00,40.5,39.2,29.97,WNW,284,2.9,4.0,95,0.00,OVC,,0.29,WeatherDisplay:10.37,2013-01-29 04:25:00,
2013-01-28 23:30:00,40.4,39.1,29.97,NW,309,5.9,9.2,95,0.00,OVC,,0.29,WeatherDisplay:10.37,2013-01-29 04:30:00,
2013-01-28 23:35:00,40.4,39.1,29.98,WSW,249,2.5,4.6,95,0.00,OVC,,0.29,WeatherDisplay:10.37,2013-01-29 04:35:00,
2013-01-28 23:40:00,40.3,39.0,29.98,WSW,246,5.0,8.0,95,0.00,OVC,,0.29,WeatherDisplay:10.37,2013-01-29 04:40:00,
2013-01-28 23:45:00,40.2,38.9,29.98,West,259,4.1,5.8,95,0.00,OVC,,0.29,WeatherDisplay:10.37,2013-01-29 04:45:00,
2013-01-28 23:50:00,40.1,38.8,29.98,West,260,5.0,7.0,95,0.00,OVC,,0.29,WeatherDisplay:10.37,2013-01-29 04:50:00,
2013-01-28 23:55:00,40.0,38.7,29.98,WSW,252,3.8,6.9,95,0.00,OVC,,0.29,WeatherDisplay:10.37,2013-01-29 04:55:00,